RPA3447 KMSY-KEWR

Flight info

Callsign RPA3447
Flight time N/A
Altitude 31000
Route GARTS MGM TWOUP Q22 BEARI QUART PHLBO4
Aircraft E75L/M-SDE3GILORVW/S

Departure

Time 2026-05-07 19:14
Airport Louis Armstrong New Orleans International Airport (KMSY)

Arrival

Time N/A
Airport Newark Liberty International Airport (KEWR)
Time Latitude Longitude Altitude Speed Heading
2026-05-07 18:49 29.99368 -90.25480 6 ft 0 kts 93°
2026-05-07 19:05 29.99368 -90.25483 6 ft 3 kts 93°
2026-05-07 19:05 29.99373 -90.25513 6 ft 4 kts 111°
2026-05-07 19:05 29.99388 -90.25536 6 ft 4 kts 159°
2026-05-07 19:05 29.99398 -90.25538 6 ft 0 kts 182°
2026-05-07 19:09 29.99396 -90.25538 6 ft 2 kts 182°
2026-05-07 19:09 29.99372 -90.25539 6 ft 4 kts 182°
2026-05-07 19:09 29.99341 -90.25540 6 ft 5 kts 182°
2026-05-07 19:09 29.99302 -90.25542 7 ft 6 kts 182°
2026-05-07 19:10 29.99261 -90.25544 7 ft 7 kts 181°
2026-05-07 19:10 29.99216 -90.25530 8 ft 7 kts 141°
2026-05-07 19:10 29.99202 -90.25486 9 ft 6 kts 95°
2026-05-07 19:10 29.99198 -90.25433 9 ft 7 kts 94°
2026-05-07 19:11 29.99194 -90.25367 9 ft 9 kts 94°
2026-05-07 19:11 29.99189 -90.25280 7 ft 12 kts 94°
2026-05-07 19:11 29.99183 -90.25186 7 ft 13 kts 94°
2026-05-07 19:11 29.99174 -90.25088 8 ft 11 kts 103°
2026-05-07 19:12 29.99125 -90.25071 7 ft 9 kts 197°
2026-05-07 19:12 29.99055 -90.25094 6 ft 12 kts 195°
2026-05-07 19:12 29.98973 -90.25120 6 ft 11 kts 195°
2026-05-07 19:12 29.98936 -90.25164 7 ft 7 kts 275°
2026-05-07 19:13 29.98951 -90.25222 9 ft 15 kts 286°
2026-05-07 19:13 29.99040 -90.25591 9 ft 81 kts 286°
2026-05-07 19:13 29.99249 -90.26451 13 ft 140 kts 285°
2026-05-07 19:13 29.99547 -90.27693 207 ft 173 kts 286°
2026-05-07 19:14 29.99889 -90.29092 790 ft 188 kts 288°
2026-05-07 19:14 30.00653 -90.30356 1503 ft 203 kts 328°
2026-05-07 19:14 30.01986 -90.30902 2484 ft 211 kts 352°
2026-05-07 19:14 30.03488 -90.30899 3277 ft 221 kts 10°
2026-05-07 19:15 30.05013 -90.30258 3689 ft 254 kts 32°
2026-05-07 19:15 30.06347 -90.28726 4198 ft 279 kts 49°
2026-05-07 19:15 30.07540 -90.26918 5097 ft 286 kts 52°
2026-05-07 19:15 30.08740 -90.25064 5934 ft 293 kts 51°
2026-05-07 19:16 30.09966 -90.23255 6734 ft 297 kts 48°
2026-05-07 19:16 30.11322 -90.21410 7610 ft 301 kts 47°
2026-05-07 19:16 30.12669 -90.19518 8411 ft 307 kts 49°
2026-05-07 19:16 30.13988 -90.17553 9185 ft 312 kts 50°
2026-05-07 19:17 30.15294 -90.15571 9898 ft 317 kts 50°
2026-05-07 19:17 30.16653 -90.13528 10285 ft 333 kts 50°
2026-05-07 19:17 30.17996 -90.11368 10399 ft 355 kts 53°
2026-05-07 19:17 30.19410 -90.08941 10654 ft 371 kts 54°
2026-05-07 19:18 30.20864 -90.06467 11285 ft 373 kts 52°
2026-05-07 19:18 30.22327 -90.04153 11931 ft 373 kts 50°
2026-05-07 19:18 30.23877 -90.01764 12551 ft 376 kts 51°
2026-05-07 19:18 30.25444 -89.99310 13038 ft 382 kts 51°
2026-05-07 19:19 30.26966 -89.96887 13545 ft 389 kts 51°
2026-05-07 19:19 30.28539 -89.94352 14118 ft 394 kts 52°
2026-05-07 19:19 30.30134 -89.91759 14723 ft 399 kts 52°
2026-05-07 19:19 30.31734 -89.89155 15279 ft 405 kts 52°
2026-05-07 19:20 30.33380 -89.86477 15826 ft 411 kts 52°
2026-05-07 19:20 30.34948 -89.83912 16308 ft 416 kts 52°
2026-05-07 19:20 30.36539 -89.81281 16789 ft 421 kts 52°
2026-05-07 19:20 30.38212 -89.78496 17276 ft 426 kts 53°
2026-05-07 19:21 30.39918 -89.75635 17710 ft 432 kts 53°
2026-05-07 19:21 30.41618 -89.72747 18161 ft 436 kts 53°
2026-05-07 19:21 30.43332 -89.69822 18638 ft 440 kts 53°
2026-05-07 19:21 30.45060 -89.66883 19106 ft 444 kts 53°
2026-05-07 19:22 30.46808 -89.63907 19568 ft 448 kts 53°
2026-05-07 19:22 30.48534 -89.60953 20013 ft 452 kts 53°
2026-05-07 19:22 30.50225 -89.58051 20453 ft 456 kts 53°
2026-05-07 19:22 30.51975 -89.55036 20902 ft 460 kts 53°
2026-05-07 19:23 30.53738 -89.51993 21370 ft 462 kts 53°
2026-05-07 19:23 30.55530 -89.48878 21725 ft 467 kts 53°
2026-05-07 19:23 30.57304 -89.45751 22158 ft 470 kts 54°
2026-05-07 19:23 30.59113 -89.42549 22551 ft 474 kts 54°
2026-05-07 19:24 30.60926 -89.39328 22929 ft 478 kts 54°
2026-05-07 19:24 30.62750 -89.36079 23329 ft 480 kts 54°
2026-05-07 19:24 30.64555 -89.32868 23685 ft 484 kts 53°
2026-05-07 19:24 30.66378 -89.29609 24062 ft 487 kts 54°
2026-05-07 19:25 30.68170 -89.26396 24417 ft 489 kts 54°
2026-05-07 19:25 30.70018 -89.23061 24728 ft 493 kts 54°
2026-05-07 19:25 30.71868 -89.19689 25039 ft 497 kts 54°
2026-05-07 19:25 30.73439 -89.16820 25356 ft 498 kts 54°
2026-05-07 19:26 30.75327 -89.13382 25698 ft 500 kts 54°
2026-05-07 19:26 30.77192 -89.09984 26181 ft 498 kts 54°
2026-05-07 19:26 30.79056 -89.06597 26559 ft 499 kts 54°
2026-05-07 19:26 30.80909 -89.03196 26954 ft 499 kts 54°
2026-05-07 19:27 30.82757 -88.99786 27330 ft 499 kts 54°
2026-05-07 19:27 30.84610 -88.96355 27738 ft 498 kts 54°
2026-05-07 19:27 30.86445 -88.92951 28076 ft 499 kts 54°
2026-05-07 19:27 30.88289 -88.89509 28444 ft 499 kts 54°
2026-05-07 19:28 30.90025 -88.86260 28799 ft 499 kts 54°
2026-05-07 19:28 30.91844 -88.82844 29106 ft 500 kts 54°
2026-05-07 19:28 30.93622 -88.79488 29450 ft 500 kts 54°
2026-05-07 19:28 30.95462 -88.76006 29756 ft 500 kts 54°
2026-05-07 19:29 30.97280 -88.72551 30080 ft 501 kts 54°
2026-05-07 19:29 30.99097 -88.69087 30422 ft 500 kts 54°
2026-05-07 19:29 31.00893 -88.65655 30771 ft 499 kts 55°
2026-05-07 19:29 31.02604 -88.62375 31125 ft 494 kts 55°
2026-05-07 19:30 31.04392 -88.58929 30998 ft 487 kts 55°
2026-05-07 19:30 31.06110 -88.55594 31061 ft 477 kts 55°
2026-05-07 19:30 31.09514 -88.49008 31039 ft 483 kts 55°
2026-05-07 19:31 31.13030 -88.42333 31047 ft 483 kts 54°
2026-05-07 19:31 31.16565 -88.35761 31003 ft 484 kts 54°
2026-05-07 19:32 31.19525 -88.30201 31022 ft 484 kts 54°
2026-05-07 19:32 31.23652 -88.22424 31020 ft 483 kts 54°
2026-05-07 19:33 31.26610 -88.16834 31023 ft 485 kts 54°
2026-05-07 19:33 31.30175 -88.10102 31019 ft 484 kts 54°
2026-05-07 19:34 31.33521 -88.03773 31021 ft 485 kts 54°
2026-05-07 19:34 31.37068 -87.97053 31017 ft 485 kts 54°
2026-05-07 19:35 31.40611 -87.90326 31020 ft 485 kts 54°
2026-05-07 19:35 31.44126 -87.83638 31016 ft 485 kts 54°
2026-05-07 19:36 31.47669 -87.76887 31016 ft 485 kts 54°
2026-05-07 19:36 31.51187 -87.70169 31021 ft 485 kts 54°
2026-05-07 19:37 31.54717 -87.63423 31019 ft 485 kts 54°
2026-05-07 19:37 31.58245 -87.56665 31023 ft 485 kts 54°
2026-05-07 19:38 31.61748 -87.49941 31019 ft 485 kts 54°
2026-05-07 19:38 31.65251 -87.43202 31020 ft 485 kts 54°
2026-05-07 19:39 31.68728 -87.36506 31016 ft 485 kts 54°
2026-05-07 19:39 31.72167 -87.29874 31004 ft 485 kts 54°
2026-05-07 19:40 31.75649 -87.23144 31010 ft 484 kts 54°
2026-05-07 19:40 31.79128 -87.16415 31010 ft 483 kts 54°
2026-05-07 19:41 31.82533 -87.09803 31008 ft 483 kts 54°
2026-05-07 19:41 31.85990 -87.03085 31009 ft 483 kts 54°
2026-05-07 19:42 31.89386 -86.96479 31008 ft 483 kts 54°
2026-05-07 19:42 31.92798 -86.89830 31013 ft 483 kts 54°
2026-05-07 19:43 31.96242 -86.83101 31007 ft 483 kts 54°
2026-05-07 19:43 31.99709 -86.76314 31010 ft 482 kts 54°
2026-05-07 19:44 32.03147 -86.69584 31023 ft 488 kts 54°
2026-05-07 19:44 32.06626 -86.62753 30993 ft 485 kts 54°
2026-05-07 19:45 32.10039 -86.56038 31020 ft 486 kts 54°
2026-05-07 19:45 32.13447 -86.49322 31006 ft 485 kts 54°